Theta_e
326 325 328 322 306 305 299 301 305 304 304 307 307 307 307 308 305 302 320 330 332 333 340 347 349 352 351 350 350 348 349 349 349 347 346 343 341 340 341 341 342 345 344 342 339 336 335 335 335
323 322 324 317 301 296 298 303 304 306 306 307 307 307 307 306 312 315 321 329 333 334 341 345 346 351 352 351 350 348 348 350 348 347 345 342 339 339 338 337 338 339 339 338 336 334 331 331 329
319 318 314 308 302 297 298 303 305 305 306 307 307 309 309 308 312 317 324 330 333 335 339 342 345 349 351 351 350 350 349 350 349 346 343 340 337 337 337 337 336 337 336 335 330 327 326 325 324
319 317 312 301 298 302 301 304 306 307 306 307 308 306 310 313 314 318 325 331 333 335 338 340 345 349 350 350 350 349 349 350 349 346 342 340 338 336 335 335 336 335 334 330 326 323 323 322 321
318 313 302 299 298 301 304 306 305 305 305 306 306 306 307 311 314 317 326 330 333 335 339 341 344 347 349 349 349 349 350 349 346 344 341 340 337 335 332 332 334 331 328 325 323 323 321 320 319
310 311 299 297 298 302 305 306 305 305 306 305 305 306 309 311 312 316 325 330 334 335 338 340 338 341 344 347 347 348 347 345 342 341 339 338 336 333 330 330 329 327 324 323 323 322 320 319 317
306 304 299 298 299 301 304 305 304 305 305 306 308 305 310 310 312 317 324 330 334 336 337 338 339 341 335 339 340 341 342 340 339 339 338 336 334 330 328 328 326 324 323 324 322 320 318 317 315
311 307 299 300 299 299 305 304 306 305 305 307 308 305 306 311 312 318 323 327 331 334 335 336 338 339 341 342 333 335 337 337 336 336 334 331 329 328 327 325 325 324 323 321 320 318 316 314 311
308 302 298 299 298 301 305 303 305 306 306 306 308 309 311 309 313 317 320 323 326 328 332 335 335 335 338 336 333 330 331 331 332 331 328 325 328 325 323 322 325 324 321 319 318 315 313 310 307
306 301 300 303 304 302 304 304 306 304 305 306 306 310 309 308 312 314 316 318 322 324 327 330 332 332 335 332 333 333 334 334 332 331 329 329 325 323 321 319 322 323 320 316 315 312 306 302 303
305 300 304 302 303 303 303 303 305 304 303 307 307 309 311 308 309 311 314 317 320 323 325 326 328 331 332 331 331 332 332 333 331 330 329 325 322 319 319 319 320 320 314 313 311 306 302 301 303
301 304 304 304 303 303 302 304 303 304 306 309 310 310 310 308 308 309 311 314 317 320 322 324 325 327 329 331 329 330 327 330 327 328 325 321 318 317 316 317 317 316 313 310 306 302 302 301 300
301 303 304 305 304 303 304 303 303 304 308 309 309 307 307 308 309 310 311 313 315 316 319 321 323 324 326 327 327 328 328 327 326 326 321 319 317 315 314 314 314 313 310 307 302 301 300 300 299
302 302 302 303 302 303 301 302 302 304 307 306 306 306 307 307 308 309 309 308 311 314 316 319 320 322 323 324 325 325 325 326 325 323 320 317 315 313 311 311 310 309 306 303 301 300 300 299 299
301 298 300 301 300 300 301 298 298 305 306 304 305 306 306 306 307 307 309 309 310 311 313 315 317 319 320 321 323 323 322 323 322 320 318 315 313 310 309 309 307 305 302 301 300 299 299 298 297
297 296 293 300 297 299 300 294 302 305 302 302 304 306 306 307 308 309 309 309 310 310 310 312 313 315 318 319 320 320 321 319 319 318 316 313 310 308 306 306 305 302 300 299 298 297 297 297 297
296 291 294 295 298 297 298 295 301 303 301 301 302 304 304 306 307 309 310 309 310 310 309 309 311 312 314 317 318 318 318 317 316 316 314 311 309 306 304 304 303 300 298 298 298 297 297 296 296
293 292 293 292 297 296 294 294 298 301 300 300 301 302 304 304 305 307 308 309 309 309 309 309 308 310 312 314 315 316 315 315 315 314 313 311 307 305 303 302 302 299 298 297 297 296 296 297 296
294 292 291 295 298 294 294 295 297 299 299 300 301 302 304 304 306 306 306 307 307 307 307 307 306 306 308 309 310 311 310 311 311 312 311 309 307 304 303 302 300 298 297 297 296 296 294 294 295
293 291 291 295 297 293 294 293 296 298 299 300 300 302 303 303 304 305 305 306 306 305 305 305 305 305 305 307 309 309 308 309 309 310 309 308 306 304 302 301 300 298 297 297 296 295 294 295 294
293 291 292 292 294 294 292 293 294 299 298 300 301 301 301 300 302 303 303 303 303 303 303 302 303 304 304 305 306 306 304 305 304 305 305 304 304 303 301 301 300 298 298 296 296 295 295 293 293
290 296 292 290 289 286 292 286 294 298 299 300 300 299 300 301 301 301 301 300 300 300 301 301 302 302 301 302 303 303 301 300 302 302 303 303 302 302 301 300 300 299 297 297 297 296 296 297 292
291 292 291 290 289 287 289 286 294 295 293 297 297 298 299 299 298 297 297 297 297 298 298 299 300 300 300 300 301 301 301 302 303 302 302 301 300 300 300 299 299 298 297 297 297 295 295 296 296
293 292 291 289 288 284 291 288 290 293 294 296 296 296 296 295 295 295 295 295 294 295 296 297 297 296 298 299 299 300 299 299 300 298 298 299 298 298 298 298 298 298 297 296 296 296 295 295 295
291 289 284 285 284 285 287 287 290 296 296 294 293 293 293 293 293 292 292 292 292 292 293 294 294 293 295 296 297 298 298 298 298 298 297 297 297 296 296 297 297 296 296 296 296 295 294 294 293
289 290 284 280 282 286 291 286 292 297 293 294 294 293 293 292 292 291 291 291 292 291 292 292 292 292 292 293 294 295 296 297 298 298 297 297 297 297 297 297 296 296 296 295 295 294 294 294 293
288 286 292 285 286 281 287 292 294 293 291 292 291 292 290 290 290 290 290 290 290 291 291 291 291 291 291 292 292 293 294 294 295 296 297 297 297 297 297 296 295 295 295 294 294 293 292 292 293
291 293 285 286 278 277 284 287 288 289 288 290 289 288 288 289 289 289 289 289 290 290 291 291 291 290 290 290 291 291 292 292 293 293 293 294 295 295 295 295 294 294 294 293 293 292 292 291 291
287 285 286 286 284 280 279 284 293 290 288 288 287 287 287 287 287 288 289 289 289 289 289 289 289 288 288 289 289 290 291 291 292 291 292 292 293 293 293 294 293 293 293 292 291 291 291 289 289
291 289 289 283 281 284 283 284 295 289 287 286 284 284 286 286 287 287 287 287 287 287 288 288 288 288 287 288 288 288 289 290 289 290 291 291 291 291 292 292 292 292 292 291 290 289 289 288 288
Wind_Speed
0 3 2 4 5 4 3 1 2 3 2 1 3 3 4 7 4 5 2 9 6 15 16 17 13 17 16 14 13 11 11 13 12 12 12 6 6 6 6 7 8 10 11 9 9 7 5 6 6
2 2 2 1 5 4 3 0 2 1 1 2 4 5 6 7 3 2 3 11 9 15 15 17 12 14 15 15 14 13 11 12 12 12 12 9 5 5 4 3 4 5 6 8 8 6 5 5 5
1 3 3 2 2 3 3 2 1 1 3 5 3 4 3 3 2 1 2 13 11 14 13 13 13 14 14 16 14 13 13 13 13 12 10 7 6 6 5 4 4 5 5 6 6 5 5 5 5
1 3 3 5 7 7 6 5 6 8 2 4 4 6 3 4 1 2 3 13 12 13 13 10 11 13 13 14 14 13 13 15 14 12 11 9 7 6 5 4 5 6 7 6 6 6 6 5 6
1 1 3 3 5 5 7 7 6 5 1 4 4 2 4 3 2 2 8 12 14 15 13 12 10 12 13 14 14 13 14 13 12 12 10 10 8 7 7 7 7 7 7 7 7 8 7 7 7
2 2 4 5 4 5 7 6 5 5 2 2 4 5 4 3 4 6 6 11 12 15 14 13 11 8 8 9 12 12 13 13 10 8 8 10 9 10 9 9 8 8 8 8 8 7 7 7 7
2 3 3 4 6 5 2 1 4 2 3 4 1 5 2 5 3 4 6 9 10 13 13 13 14 12 9 9 8 8 9 8 9 10 11 9 10 11 10 10 10 10 9 9 8 8 8 7 8
1 3 3 4 3 5 3 3 1 5 3 2 2 6 5 4 5 5 6 9 11 12 13 14 13 14 14 13 10 9 8 10 8 10 9 9 8 7 8 7 10 10 10 10 9 9 8 8 8
1 5 6 5 5 2 4 5 4 1 7 5 8 8 4 6 5 6 7 9 11 12 14 14 14 14 15 13 10 8 9 8 11 9 9 9 9 10 10 8 9 11 10 10 9 8 8 8 8
5 5 6 5 6 5 4 7 7 6 11 15 12 15 9 6 8 10 12 13 16 17 17 15 15 15 15 11 13 10 11 12 9 9 11 11 10 9 8 7 7 9 9 10 9 8 7 5 3
4 8 8 7 11 7 7 9 5 10 15 18 15 12 8 11 12 13 15 16 18 16 14 18 16 16 16 13 11 8 8 9 8 13 13 12 9 8 8 7 7 8 8 6 7 6 4 3 2
7 12 11 5 4 4 7 5 9 13 24 23 20 16 14 12 14 15 17 17 16 16 18 17 18 16 17 11 11 11 10 10 8 12 15 11 8 9 9 7 9 8 7 6 5 3 3 3 2
9 10 10 11 10 10 11 22 16 20 24 25 20 15 18 17 18 15 16 15 15 17 17 18 18 18 17 17 13 13 12 11 12 13 14 11 11 10 10 9 9 8 7 7 6 5 5 4 3
2 8 13 10 14 11 11 25 6 16 15 19 15 18 16 16 17 14 14 17 17 16 18 16 19 19 17 16 17 13 12 13 13 12 13 16 11 11 11 10 9 8 7 6 6 6 5 5 4
4 11 15 17 11 10 8 12 18 22 11 16 20 15 12 14 13 16 14 14 15 15 15 19 20 20 21 21 18 14 12 12 13 13 16 16 14 13 12 10 9 8 7 8 6 6 5 5 4
7 4 11 6 3 3 9 20 20 12 9 13 17 17 15 19 18 14 13 13 13 15 16 17 14 19 21 20 16 13 13 13 12 12 12 17 16 15 13 11 10 9 8 8 7 7 6 5 4
8 13 15 13 5 3 12 13 14 7 9 20 21 24 23 24 22 16 15 14 14 15 15 16 17 19 20 19 14 14 16 13 13 12 12 16 17 17 13 11 10 11 9 8 8 8 8 6 5
14 11 11 11 9 10 15 20 21 24 23 26 26 24 21 17 22 16 14 13 13 12 12 13 12 15 16 12 13 12 12 13 13 13 13 17 14 17 14 11 12 11 9 8 8 9 7 6 6
14 17 21 20 18 15 21 23 19 21 26 27 23 20 16 12 12 11 11 11 10 7 8 9 11 12 11 11 12 12 13 12 13 13 17 17 16 19 16 11 12 12 12 12 12 8 10 6 7
17 22 22 21 15 8 17 23 25 26 22 22 22 17 12 7 9 10 11 13 13 10 8 7 8 9 11 9 9 10 9 11 11 11 13 15 17 17 15 15 14 16 12 14 15 13 9 7 10
18 16 21 23 15 14 13 13 4 5 9 14 11 9 5 4 11 14 16 15 15 16 14 10 7 7 8 11 8 8 6 8 8 10 10 12 16 16 17 17 14 14 12 12 14 15 16 10 10
19 14 16 14 8 10 8 11 11 12 18 12 13 12 14 15 17 16 17 17 17 16 15 14 10 5 4 8 9 12 10 10 9 9 10 11 15 17 17 16 15 15 12 12 12 12 12 11 10
9 5 4 4 8 8 5 8 6 5 4 7 11 13 16 16 18 19 19 19 18 19 19 17 15 10 5 5 9 7 11 9 8 6 10 13 12 16 16 16 16 15 12 13 14 14 14 11 9
1 4 7 2 4 10 10 9 2 3 2 9 12 15 18 18 18 17 16 17 20 20 19 17 16 15 12 6 6 8 9 10 8 8 6 7 9 11 16 16 16 15 14 15 14 14 15 13 10
4 5 6 6 6 8 6 3 7 11 6 13 15 13 14 12 14 19 19 19 20 20 18 16 18 18 15 12 9 9 9 10 12 11 8 9 8 9 14 17 16 14 17 16 15 16 16 16 13
6 7 4 7 10 16 11 9 6 5 17 13 14 14 15 19 16 16 17 15 15 15 17 19 19 18 19 17 15 10 9 7 9 10 9 9 9 11 14 14 15 17 17 16 15 13 13 15 14
5 7 8 4 5 7 10 17 8 9 9 12 14 14 15 13 13 13 14 15 17 17 15 17 17 16 17 16 15 15 12 11 11 13 12 10 11 10 12 14 16 17 17 16 16 13 15 15 15
8 3 7 5 6 10 14 14 11 11 5 7 11 11 12 10 12 12 13 13 13 14 14 14 14 14 14 14 13 12 14 15 13 12 13 13 13 12 12 13 15 16 17 17 17 15 14 16 13
5 7 6 3 5 5 4 9 3 3 5 7 7 9 10 12 12 13 13 13 14 13 14 15 16 16 16 15 13 12 11 13 12 10 11 12 13 13 13 12 13 15 16 16 17 18 17 18 17
7 10 13 9 10 10 14 18 12 6 8 5 5 6 7 8 10 11 12 13 13 14 14 15 15 15 16 15 15 14 13 13 13 14 15 13 12 12 13 13 13 13 15 16 18 19 17 18 20
Wind_Direction
246 357 284 239 247 252 258 180 311 257 241 52 125 257 317 319 291 335 87 183 182 167 172 177 180 174 172 172 163 166 166 163 165 148 133 151 136 130 129 107 107 110 112 104 99 93 78 76 71
29 280 235 259 259 266 73 98 223 333 337 199 214 222 248 285 267 278 225 180 184 170 173 178 176 176 174 173 171 173 180 176 169 155 144 151 141 150 157 141 141 128 107 96 93 94 86 77 70
99 338 270 289 265 306 354 194 52 348 260 226 242 250 296 236 201 294 47 162 175 174 179 181 172 181 182 177 178 180 185 180 178 169 149 147 184 181 172 166 161 132 113 98 105 102 105 95 78
258 173 143 265 276 276 268 298 295 300 191 230 279 257 220 279 242 102 137 161 173 179 183 170 187 186 184 178 183 186 191 193 185 162 145 159 167 179 190 178 182 158 131 129 125 124 107 87 80
50 220 238 267 277 274 261 288 288 279 281 194 211 296 257 187 173 166 167 177 180 178 184 183 190 199 197 186 192 193 193 184 162 137 158 166 172 185 190 188 156 146 147 145 145 128 123 113 97
160 283 239 269 279 275 282 271 270 252 242 177 224 262 265 113 200 182 181 189 192 183 181 184 178 172 165 189 199 195 192 173 148 152 182 170 177 192 194 187 168 166 160 155 141 130 122 114 109
251 231 289 281 282 281 254 172 229 266 237 233 260 261 280 222 179 163 184 190 193 189 190 191 191 186 178 171 170 174 179 168 160 188 190 181 192 194 193 185 180 174 164 149 145 134 125 117 103
183 241 221 222 242 273 203 221 215 249 299 101 230 237 271 101 136 155 173 188 195 196 201 201 201 201 197 191 182 187 204 176 195 182 170 175 175 189 191 177 186 177 162 158 151 140 129 115 106
225 232 243 239 204 208 182 238 168 290 264 217 203 246 314 126 153 171 178 194 200 207 209 206 206 207 206 204 201 192 197 181 171 173 164 159 202 196 186 195 173 174 167 157 150 136 122 107 92
227 238 243 227 226 244 234 242 283 243 249 253 249 241 225 185 199 208 206 207 207 208 205 207 209 208 208 202 207 210 209 208 196 182 182 196 200 197 198 182 197 160 161 160 155 140 135 187 151
184 242 248 238 243 258 272 260 243 263 268 260 268 281 242 222 225 229 230 229 217 215 206 205 204 207 206 204 203 205 211 206 195 195 195 194 191 184 191 184 184 176 169 172 164 156 188 158 157
238 242 247 264 224 227 259 297 251 242 260 277 287 280 277 239 233 228 233 232 227 220 215 207 207 204 205 205 206 206 201 203 192 199 195 187 190 191 190 191 186 183 185 174 175 172 150 135 91
235 252 257 252 257 255 275 266 266 263 263 274 275 267 262 263 258 247 245 242 232 225 219 213 206 208 205 204 205 208 209 204 200 202 197 193 194 192 190 193 189 188 181 182 178 168 163 154 134
343 274 278 272 256 241 242 269 280 256 262 277 271 266 269 263 265 265 244 246 232 229 225 214 212 212 209 210 212 207 208 203 203 204 200 200 197 193 192 191 193 188 188 182 180 172 169 166 165
316 294 290 268 254 230 216 259 235 264 277 274 284 283 273 259 260 252 256 243 239 232 230 219 213 209 210 210 212 209 210 208 204 205 202 198 198 196 194 191 191 189 186 178 173 167 171 174 174
270 244 282 293 166 183 200 273 282 296 274 272 287 288 280 276 278 272 267 250 239 233 225 222 211 211 212 212 209 206 207 206 209 208 203 199 198 197 195 193 194 184 181 182 181 175 177 182 183
226 269 264 286 238 166 209 277 283 269 283 287 280 277 276 288 288 287 284 266 255 243 235 226 217 218 218 220 216 213 212 209 209 209 207 202 200 197 196 197 193 180 183 187 184 183 188 178 173
270 256 250 259 286 244 270 266 280 287 290 280 276 277 282 287 288 316 301 286 272 260 248 239 227 223 219 218 218 217 217 215 214 208 207 201 198 197 199 197 188 183 185 190 191 185 183 183 166
284 271 273 278 279 294 282 291 297 288 278 275 285 278 281 288 330 330 318 313 308 282 263 245 231 221 212 211 212 218 222 220 218 214 209 205 198 194 196 196 191 188 189 188 189 180 176 173 171
258 268 275 279 274 286 289 297 289 273 276 275 279 286 297 334 3 21 21 25 15 359 340 303 259 231 218 220 220 221 223 232 236 227 223 212 205 199 196 192 191 190 188 191 187 182 174 182 186
247 264 274 284 308 274 292 278 265 278 266 279 283 284 320 54 66 41 32 24 20 16 10 357 315 266 234 224 220 225 256 237 224 228 227 220 213 204 201 199 191 192 194 191 189 187 184 178 191
278 262 267 282 298 291 352 295 297 263 274 322 40 62 93 67 45 37 36 34 26 16 15 10 4 344 266 232 226 221 230 236 230 225 224 222 221 215 208 203 203 196 193 197 192 193 197 185 180
262 1 304 297 275 298 250 260 315 251 269 61 66 90 71 39 44 36 30 29 27 24 22 13 17 22 354 257 239 242 252 261 253 250 223 211 214 223 219 214 207 202 205 203 197 193 197 199 194
232 295 274 196 263 257 257 216 328 354 116 62 69 67 40 42 45 38 33 35 32 27 24 24 28 26 9 347 290 257 259 267 263 249 238 221 216 215 214 212 209 207 205 203 200 199 202 201 206
222 305 308 269 217 272 109 278 271 278 356 59 85 59 55 48 44 34 31 29 27 27 27 30 27 28 26 19 347 322 297 275 266 265 241 239 223 220 222 215 213 211 206 204 200 198 201 203 204
172 175 202 271 284 295 315 254 255 244 90 78 55 48 40 37 36 31 28 28 29 28 28 25 27 29 23 16 8 356 327 304 294 277 261 249 235 231 225 219 222 218 214 212 206 206 207 205 209
103 207 234 243 272 273 257 261 239 101 84 62 54 42 35 28 28 25 20 21 18 23 22 26 24 23 23 21 12 11 356 331 307 296 279 267 254 253 236 224 217 218 221 216 209 212 210 209 207
208 202 219 234 244 242 260 263 265 182 74 53 50 32 21 21 25 20 17 19 21 21 18 21 20 20 18 15 19 12 3 356 341 316 293 276 268 252 240 232 223 222 217 215 213 214 214 210 210
201 211 211 110 226 258 274 274 70 59 110 61 35 19 14 16 21 17 13 14 13 15 15 12 10 10 8 11 10 9 9 6 358 338 316 300 289 275 253 239 227 222 218 217 221 222 215 214 211
271 253 214 227 228 230 249 247 331 111 111 76 52 24 16 11 6 7 10 4 6 8 6 5 4 4 2 358 357 358 0 2 359 354 348 331 305 288 270 255 242 231 224 219 219 221 221 216 214